[[{"header":{"parameterUnit":"m.s-1","parameterCategory":1,"la1":30.2991,"la2":30.254,"lo1":-89.0895,"lo2":-89.0444,"dy":0.0017,"dx":0.0017,"nx":28,"ny":28,"refTime":"2024-07-24T21:00:00:Z","depth":0,"parameterNumber":2,"parameterNumberName":"U-component_of_WINDS"},"data":[0,0,0,0,0,0,0,0,0,0,0,0,0,0,0,0,0,0,0,0,0,0,0,0,0,0,0,0,0,0,0,0,0,0,0,0,0,0,0,0,0,0,0,0,0,0,0,0,0,0,0,0,0,0,0,0,0,0,1.58,1.58,0,1.5832,1.5832,1.5832,1.5831,1.5831,1.583,1.583,1.5863,1.5865,1.5866,0,0,0,0,0,0,0,0,0,0,0,0,0,1.5739,1.574,1.58,1.58,1.58,1.5832,1.5832,1.5832,1.5831,1.5831,1.583,1.5829,1.5863,1.5864,1.5866,0,0,0,0,0,0,0,0,0,0,0,0,0,1.5768,1.5741,1.58,1.5803,1.5804,1.5832,1.5832,1.5833,1.5831,1.5831,1.583,1.5829,1.5862,1.5864,1.5866,1.5892,0,0,1.5872,1.5873,0,0,0,0,0,0,0,0,1.5766,1.577,1.5803,1.5803,1.5804,1.5827,1.5823,1.5853,1.5831,1.5821,1.583,1.5829,1.5852,1.5854,1.5862,1.5893,1.5895,1.5872,1.5874,1.5874,1.5875,0,0,0,0,0,0,0,1.5764,1.5769,1.5812,1.5803,1.5804,1.5804,1.5808,1.5829,1.584,1.5822,1.5822,1.5826,1.5852,1.586,1.5863,1.5895,1.5872,1.5874,1.5875,1.5876,1.5952,1.5953,0,0,0,0,0,0,1.5761,1.5767,1.5811,1.5813,1.5783,1.5806,1.581,1.582,1.584,1.5842,1.5826,1.5825,1.5857,1.586,1.5864,1.5897,1.5874,1.5876,1.5877,1.5951,1.5952,1.5953,0,0,0,0,0,0,1.576,1.5765,1.581,1.579,1.5796,1.5808,1.5819,1.5821,1.5829,1.5843,1.5845,1.5832,1.5857,1.5861,1.5885,1.5898,1.5877,1.5879,1.595,1.5951,1.5953,1.5962,0,0,0,0,0,0,1.5758,1.5765,1.5774,1.579,1.5797,1.583,1.582,1.5822,1.5832,1.5832,1.5849,1.5851,1.5856,1.5882,1.5887,1.59,1.588,1.5949,1.5951,1.5952,1.596,1.5963,1.5965,0,0,0,0,0,1.5756,1.5775,1.5774,1.578,1.5809,1.5831,1.5835,1.584,1.5833,1.5843,1.5853,1.5851,1.5896,1.5885,1.589,1.5904,1.5948,1.595,1.5952,1.5959,1.5963,1.5965,0,0,0,0,0,0,1.576,1.5777,1.5777,1.5801,1.5815,1.5831,1.5843,1.5843,1.5859,1.5858,1.5864,1.5868,1.5893,1.5901,1.5888,1.5931,1.5921,1.5924,1.5925,1.5928,1.5931,1.5928,1.5882,0,0,0,0,0,1.5763,1.5779,1.5794,1.5815,1.5821,1.5831,1.5841,1.5844,1.5858,1.5864,1.5875,1.5889,1.5906,1.5918,1.5934,1.5962,1.5966,1.5974,1.5976,1.5978,1.5981,1.5998,1.6002,1.5959,1.5959,1.5959,0,0,1.5771,1.5783,1.5792,1.5816,1.5826,1.5844,1.5836,1.5854,1.5867,1.5867,1.5891,1.5899,1.5915,1.5942,1.5954,1.5949,1.5994,1.5981,1.5982,1.5984,1.6,1.6004,1.6008,1.596,1.596,1.596,0,0,1.5794,1.5804,1.5823,1.5834,1.5851,1.5857,1.5862,1.5878,1.5884,1.5908,1.5908,1.5925,1.5954,1.5966,1.5976,1.6006,1.6006,1.6011,1.6025,1.6041,1.6045,1.6048,1.606,1.6064,1.6014,1.6014,1.6014,0,1.5802,1.5827,1.5833,1.5852,1.5863,1.5863,1.5883,1.5894,1.5915,1.5923,1.5917,1.5956,1.5966,1.5996,1.6004,1.6012,1.6018,1.6009,1.6044,1.6047,1.605,1.6061,1.6065,1.6015,1.6015,1.6014,1.6014,0,1.5837,1.5855,1.5868,1.5889,1.5901,1.5921,1.593,1.5942,1.5944,1.5952,1.5978,1.5991,1.6011,1.6018,1.6021,1.6049,1.6046,1.6042,1.6032,1.6054,1.6065,1.607,1.6016,1.6015,1.6015,1.6015,0,0,1.5862,1.5887,1.5892,1.5902,1.5921,1.5935,1.5955,1.5975,1.5986,1.6001,1.6019,1.6045,1.6042,1.6053,1.6057,1.6071,1.6096,1.6066,1.6066,1.6072,1.613,1.6134,1.6138,1.6096,1.6096,1.6097,1.6129,0,1.5888,1.5924,1.593,1.5961,1.5978,1.598,1.5998,1.6012,1.602,1.6037,1.6046,1.6064,1.6058,1.6065,1.6079,1.609,1.6108,1.6087,1.6113,1.6114,1.611,1.6144,1.6147,1.6177,1.6133,1.6134,1.6134,0,1.5923,1.594,1.5972,1.5991,1.5998,1.6014,1.6034,1.6049,1.6066,1.6071,1.6084,1.6087,1.6109,1.6098,1.613,1.6116,1.6127,1.6134,1.6135,1.6138,1.6126,1.6149,1.6186,1.6191,1.6141,1.614,1.614,0,1.594,1.597,1.5994,1.6003,1.6024,1.6036,1.6045,1.6061,1.6073,1.6091,1.6099,1.6118,1.6129,1.6145,1.6154,1.6145,1.6185,1.6174,1.6191,1.6191,1.6199,1.6199,1.624,1.6205,1.6205,1.6205,1.6205,0,1.5969,1.5989,1.6003,1.6017,1.6041,1.6048,1.6072,1.6081,1.6095,1.6113,1.6115,1.6132,1.6142,1.616,1.6167,1.6193,1.6197,1.6203,1.6205,1.6203,1.6203,1.6211,1.6209,1.6206,1.6206,1.6206,1.6205,0,1.5992,1.6001,1.6028,1.6046,1.6052,1.6068,1.6084,1.61,1.6108,1.613,1.6136,1.615,1.6172,1.6181,1.6208,1.6213,1.6243,1.6243,1.6237,1.6238,1.6254,1.6253,1.6303,1.631,1.627,1.627,1.627,0,1.601,1.6026,1.6046,1.6058,1.6068,1.6087,1.61,1.6108,1.6121,1.6143,1.6156,1.6177,1.6196,1.6231,1.6243,1.6264,1.6265,1.6281,1.6269,1.6267,1.6267,1.6266,1.6269,1.6284,1.6284,1.6285,1.6285,0,1.6042,1.6046,1.6064,1.6084,1.6099,1.6115,1.6131,1.6141,1.6152,1.6167,1.619,1.6204,1.6232,1.6254,1.6276,1.6287,1.6289,1.6289,1.6294,1.6293,1.629,1.6293,1.6245,1.6288,1.6287,1.6287,1.6287,1.6287,1.6063,1.6078,1.6095,1.6116,1.6129,1.6144,1.616,1.6171,1.6189,1.6213,1.6217,1.6241,1.6259,1.6289,1.6301,1.6321,1.6317,1.6324,1.6326,1.6328,1.6329,1.6286,1.6325,1.6324,1.6324,1.6324,1.6324,0,1.6096,1.6108,1.6126,1.6149,1.6166,1.6165,1.6183,1.6197,1.6219,1.6235,1.6253,1.628,1.6302,1.6317,1.634,1.6353,1.6354,1.6359,1.6358,1.6361,1.6331,1.6325,1.6357,1.6357,1.6357,1.6357,1.6357,1.6357,1.6115,1.6141,1.6148,1.618,1.6192,1.6215,1.6226,1.6241,1.6254,1.6284,1.6302,1.6312,1.6328,1.6352,1.6373,1.6377,1.6386,1.639,1.6394,1.6366,1.6363,1.6359,1.6354,1.6392,1.6392,1.6423,1.6423,1.6424]},{"header":{"parameterUnit":"m.s-1","parameterCategory":1,"la1":30.2991,"la2":30.254,"lo1":-89.0895,"lo2":-89.0444,"dy":0.0017,"dx":0.0017,"nx":28,"ny":28,"refTime":"2024-07-24T21:00:00:Z","depth":0,"parameterNumber":3,"parameterNumberName":"V-component_of_WINDS"},"data":[0,0,0,0,0,0,0,0,0,0,0,0,0,0,0,0,0,0,0,0,0,0,0,0,0,0,0,0,0,0,0,0,0,0,0,0,0,0,0,0,0,0,0,0,0,0,0,0,0,0,0,0,0,0,0,0,0,0,0.2911,0.291,0,0.2845,0.2844,0.2844,0.2842,0.2843,0.2844,0.2845,0.2774,0.2771,0.2769,0,0,0,0,0,0,0,0,0,0,0,0,0,0.3031,0.3029,0.2911,0.291,0.2909,0.2845,0.2844,0.2843,0.2842,0.2843,0.2844,0.2845,0.2775,0.2772,0.2769,0,0,0,0,0,0,0,0,0,0,0,0,0,0.2973,0.3028,0.2911,0.2901,0.2899,0.2845,0.2844,0.2843,0.2842,0.2843,0.2845,0.2846,0.2776,0.2772,0.2768,0.2719,0,0,0.2756,0.2754,0,0,0,0,0,0,0,0,0.2977,0.2969,0.2903,0.2901,0.29,0.2853,0.2861,0.2801,0.2842,0.2864,0.2845,0.2846,0.2799,0.2793,0.2778,0.2715,0.2712,0.2756,0.2753,0.2751,0.275,0,0,0,0,0,0,0,0.2981,0.2972,0.2885,0.2902,0.29,0.2898,0.2892,0.285,0.2825,0.2862,0.2862,0.2854,0.2798,0.2782,0.2776,0.2711,0.2756,0.2752,0.275,0.2748,0.2605,0.2603,0,0,0,0,0,0,0.2987,0.2975,0.2887,0.2883,0.2942,0.2895,0.2888,0.2867,0.2826,0.2821,0.2853,0.2854,0.2788,0.2781,0.2774,0.2713,0.2751,0.2748,0.2745,0.2606,0.2604,0.2603,0,0,0,0,0,0,0.299,0.2979,0.2889,0.2929,0.2917,0.2892,0.2868,0.2865,0.2849,0.2819,0.2814,0.2841,0.2789,0.278,0.2733,0.2711,0.2746,0.2742,0.2608,0.2606,0.2604,0.2592,0,0,0,0,0,0,0.2993,0.298,0.2962,0.2928,0.2915,0.285,0.2867,0.2863,0.2842,0.2843,0.2807,0.2802,0.2789,0.2739,0.2729,0.2706,0.2739,0.261,0.2607,0.2604,0.2594,0.259,0.2586,0,0,0,0,0,0.2998,0.296,0.2961,0.295,0.2892,0.2849,0.2841,0.2829,0.284,0.2821,0.2802,0.2803,0.2715,0.2734,0.2723,0.2698,0.2611,0.2608,0.2604,0.2596,0.2591,0.2586,0,0,0,0,0,0,0.299,0.2956,0.2956,0.2907,0.2881,0.2849,0.2824,0.2823,0.2792,0.2794,0.2779,0.2771,0.2724,0.2707,0.2728,0.2649,0.2664,0.2659,0.2662,0.2656,0.2652,0.2657,0.2736,0,0,0,0,0,0.2983,0.2952,0.2923,0.2883,0.287,0.2849,0.283,0.2823,0.2795,0.2783,0.2761,0.2733,0.2699,0.2677,0.2644,0.2592,0.2584,0.257,0.2566,0.2562,0.2557,0.2529,0.2522,0.2592,0.2592,0.2592,0,0,0.2968,0.2945,0.2926,0.2881,0.286,0.2827,0.284,0.2805,0.278,0.2777,0.2732,0.2715,0.2682,0.2633,0.261,0.2617,0.2536,0.2558,0.2556,0.2553,0.2525,0.2518,0.2512,0.259,0.2591,0.2591,0,0,0.2923,0.2903,0.2868,0.2847,0.2815,0.2802,0.2793,0.2761,0.275,0.2705,0.2702,0.2672,0.2614,0.2591,0.2572,0.2519,0.2518,0.2509,0.2487,0.2459,0.2454,0.2449,0.243,0.2423,0.2504,0.2504,0.2504,0,0.2908,0.2859,0.2849,0.2814,0.2794,0.2792,0.2755,0.2735,0.2693,0.2679,0.2688,0.2616,0.2593,0.2539,0.2526,0.251,0.25,0.2513,0.2456,0.245,0.2446,0.2427,0.242,0.2503,0.2503,0.2504,0.2504,0,0.2842,0.2808,0.2783,0.2745,0.2722,0.2686,0.2669,0.2647,0.2642,0.2628,0.2582,0.2555,0.2517,0.2504,0.2498,0.2448,0.2453,0.2459,0.2474,0.2438,0.2421,0.2414,0.2502,0.2502,0.2503,0.2503,0,0,0.2789,0.2747,0.2738,0.2721,0.2686,0.266,0.2624,0.2588,0.2569,0.2541,0.251,0.2461,0.2467,0.2445,0.2437,0.2412,0.2372,0.2421,0.242,0.2413,0.2315,0.2311,0.2303,0.2372,0.2371,0.237,0.2318,0,0.2741,0.2678,0.2668,0.2612,0.2581,0.2579,0.2548,0.2523,0.2508,0.2479,0.2463,0.2429,0.2438,0.2425,0.2401,0.2382,0.2353,0.2386,0.2342,0.234,0.235,0.2294,0.2289,0.2242,0.2311,0.231,0.2309,0,0.2675,0.2647,0.2589,0.2559,0.2546,0.2518,0.2484,0.2457,0.2428,0.2419,0.2396,0.239,0.2352,0.237,0.2317,0.234,0.2321,0.2309,0.2307,0.2302,0.2322,0.2287,0.2227,0.2219,0.2298,0.2299,0.23,0,0.2642,0.259,0.2548,0.2534,0.2498,0.2479,0.2463,0.2436,0.2415,0.2386,0.2372,0.2338,0.2319,0.2292,0.2278,0.2292,0.2226,0.2242,0.2216,0.2217,0.2202,0.2203,0.2137,0.2191,0.2191,0.2191,0.2191,0,0.2589,0.2553,0.2533,0.2508,0.2468,0.2456,0.2416,0.2401,0.2377,0.2347,0.2343,0.2316,0.2299,0.2268,0.2257,0.2214,0.2206,0.2197,0.2194,0.2197,0.2198,0.2184,0.2187,0.2189,0.219,0.219,0.219,0,0.2545,0.2531,0.2485,0.2456,0.2448,0.2419,0.2394,0.2369,0.2355,0.2318,0.2308,0.2286,0.2251,0.2234,0.2189,0.2181,0.2133,0.2133,0.2143,0.2142,0.2117,0.2119,0.2039,0.2028,0.209,0.2089,0.2089,0,0.2511,0.2484,0.2453,0.2433,0.2417,0.2386,0.2366,0.2353,0.2332,0.2298,0.2276,0.2241,0.2211,0.2154,0.2133,0.2099,0.2098,0.2072,0.2092,0.2096,0.2097,0.2098,0.2096,0.2068,0.2067,0.2067,0.2067,0,0.2453,0.2447,0.2419,0.2387,0.2363,0.2337,0.2312,0.2296,0.228,0.2256,0.222,0.2197,0.2152,0.2117,0.2082,0.2064,0.2062,0.2061,0.2053,0.2055,0.2062,0.2058,0.2132,0.2062,0.2063,0.2063,0.2063,0.2063,0.2413,0.2389,0.2363,0.2331,0.2311,0.2288,0.2263,0.2247,0.2217,0.218,0.2175,0.2136,0.2109,0.2061,0.2043,0.2012,0.2018,0.2007,0.2004,0.2001,0.2,0.2068,0.2006,0.2006,0.2006,0.2006,0.2006,0,0.2354,0.2338,0.2309,0.2274,0.2249,0.2251,0.2224,0.2202,0.2169,0.2144,0.2116,0.2074,0.204,0.2018,0.1983,0.1963,0.1961,0.1954,0.1955,0.1951,0.1996,0.2007,0.1956,0.1956,0.1956,0.1956,0.1956,0.1956,0.232,0.228,0.2271,0.2221,0.2204,0.2168,0.2152,0.213,0.211,0.2065,0.2037,0.2023,0.1999,0.1963,0.1931,0.1926,0.1913,0.1905,0.1899,0.1942,0.1947,0.1952,0.1962,0.1903,0.1903,0.1856,0.1856,0.1856]}]]